Location: Geroldsau
(48.7259°N, 8.2466°E)
Time: 04:13:58
(UTC+00:00)

Cosmos 2058 - Visible Passes

Search period start: 17 October 2021 00:00
Search period end: 27 October 2021 00:00
Orbit: 561 x 583 km, 82.5° (Epoch: 16 October)

Date Brightness Start Highest point End Pass type
(mag) Time Alt. Az. Time Alt. Az. Time Alt. Az.
19 Oct 5.5 18:44:49 10° NNE 18:44:51 10° NNE 18:44:51 10° NNE visible
20 Oct 5.4 18:47:13 10° N 18:47:34 12° NNE 18:47:34 12° NNE visible
21 Oct 5.3 18:49:40 10° N 18:50:19 14° N 18:50:19 14° N visible
22 Oct 5.1 18:52:09 10° N 18:53:05 16° N 18:53:05 16° N visible
23 Oct 5.0 18:54:40 10° N 18:55:54 18° N 18:55:54 18° N visible
24 Oct 4.8 18:57:14 10° N 18:58:45 22° N 18:58:45 22° N visible
25 Oct 5.0 17:25:02 10° NE 17:25:27 11° NE 17:25:27 11° NE visible
25 Oct 4.7 18:59:49 10° N 19:01:39 25° NNW 19:01:39 25° NNW visible
26 Oct 4.8 17:26:55 10° NNE 17:28:26 14° NE 17:28:26 14° NE visible
26 Oct 4.5 19:02:26 10° NNW 19:04:37 29° NNW 19:04:37 29° NNW visible
